STARLINK-3321 (50803 NORAD) Tracking and Keplerian Element Data

This shows tracking and keplerian element data for the satellite.

Feedback or suggestion? Click here.




ElementValue
Catalog50803
NameSTARLINK-3321
Epoch Orbit130
Epoch Day140.58334491
Epoch Year2022
RAAN285.0488
Inclination53.2166
Eccentricity0.0001801
Argument of Perigee49.1867
Mean Anonmoly217.2933
Mean Motion15.08860843
Decay Rate-0.00024902
L11 50803U 22001A 22140.58334491 -.00024902 00000+0 -15510-2 0 9999
L22 50803 53.2166 285.0488 0001801 49.1867 217.2933 15.08860843 1305

Live tracking and technical data element details for STARLINK-3321 (NORAD 50803). STARLINK-3321 can be tracked NOW for your location showing map with azimuth and elevation plus other details from your city location.

Track the satellite on the map from your city or location and see movement details for azimuth, elevation, latitude, longitude, range, height, and movement on the map or in text.







IsCatalogInMostPopularTable: catalog: 50803, numindb: 18
Update: records affected: 1



GetName: 50803 STARLINK-3321

Hit Count: updated at: Mon, 23 May 2022 19:48:15 GMT